CW9792 Weather Reports


time (UTC)temp
F
wind
direction
speed
knots
gust
knots
rain 1hr
in
rain 24hr
in
rain mn
in
humidity
%
barometer
mb
20260510231025 71 325 0.0 0.0 0.00 0.00 0.00 31 1016.2
20260510230525 71 346 0.0 0.0 0.00 0.00 0.00 29 1016.1
20260510230025 71 305 0.0 0.0 0.00 0.00 0.00 29 1016.1
20260510225524 71 333 0.0 0.0 0.00 0.00 0.00 31 1016.0
20260510225024 71 337 0.0 0.0 0.00 0.00 0.00 28 1016.0
20260510224523 72 337 0.0 0.0 0.00 0.00 0.00 30 1016.0
20260510224022 72 298 0.0 0.0 0.00 0.00 0.00 31 1016.0
20260510223522 72 334 0.0 0.0 0.00 0.00 0.00 32 1016.0
20260510223022 72 355 0.0 0.0 0.00 0.00 0.00 32 1016.1
20260510222522 72 320 0.0 0.0 0.00 0.00 0.00 32 1016.0
20260510222025 73 350 0.0 0.0 0.00 0.00 0.00 32 1015.9
20260510221521 73 295 0.0 0.0 0.00 0.00 0.00 33 1015.9
20260510221021 73 304 0.0 0.0 0.00 0.00 0.00 32 1015.9
20260510220520 74 301 0.0 0.0 0.00 0.00 0.00 33 1015.9
20260510220021 74 337 0.0 0.0 0.00 0.00 0.00 34 1015.7
20260510215519 75 295 0.0 0.0 0.00 0.00 0.00 34 1015.6
20260510215020 74 340 0.0 0.0 0.00 0.00 0.00 35 1015.6
20260510214521 74 295 0.0 0.0 0.00 0.00 0.00 35 1015.5
20260510214023 73 296 0.0 0.0 0.00 0.00 0.00 36 1015.5
20260510213521 73 302 0.0 0.0 0.00 0.00 0.00 36 1015.5
20260510213020 74 339 0.0 0.0 0.00 0.00 0.00 34 1015.4
20260510212518 75 338 0.0 0.0 0.00 0.00 0.00 34 1015.4
20260510212019 75 5 0.0 0.0 0.00 0.00 0.00 35 1015.5
20260510211519 75 355 0.0 0.0 0.00 0.00 0.00 37 1015.4
20260510211019 74 348 0.0 0.0 0.00 0.00 0.00 37 1015.4
20260510210518 74 339 0.0 0.0 0.00 0.00 0.00 38 1015.4
20260510210023 74 306 0.0 0.0 0.00 0.00 0.00 37 1015.5
20260510205517 74 299 0.0 0.0 0.00 0.00 0.00 37 1015.5
20260510205018 74 348 0.0 0.0 0.00 0.00 0.00 37 1015.4
20260510204531 74 294 0.0 0.0 0.00 0.00 0.00 35 1015.4
20260510204017 74 313 0.0 0.0 0.00 0.00 0.00 35 1015.5
20260510203517 75 272 0.0 0.0 0.00 0.00 0.00 36 1015.5
20260510203016 75 5 0.0 0.0 0.00 0.00 0.00 35 1015.3
20260510202514 74 350 0.0 0.0 0.00 0.00 0.00 34 1015.4
20260510202014 74 355 0.0 0.0 0.00 0.00 0.00 36 1015.5
20260510201515 74 355 0.0 0.0 0.00 0.00 0.00 37 1015.6
20260510201018 74 342 0.0 3.5 0.00 0.00 0.00 40 1015.5
20260510200515 74 355 0.0 3.5 0.00 0.00 0.00 37 1015.5
20260510200015 74 266 0.0 0.0 0.00 0.00 0.00 40 1015.4
20260510195513 74 284 0.0 0.0 0.00 0.00 0.00 38 1015.4
20260510195013 74 284 0.0 0.9 0.00 0.00 0.00 38 1015.5
20260510194513 74 239 0.0 0.9 0.00 0.00 0.00 40 1015.4
20260510194013 74 287 0.0 0.0 0.00 0.00 0.00 40 1015.4
20260510193512 73 293 0.0 0.0 0.00 0.00 0.00 39 1015.5
20260510193015 73 293 0.0 0.0 0.00 0.00 0.00 40 1015.5
20260510192512 74 302 0.0 0.0 0.00 0.00 0.00 42 1015.4
20260510192012 74 288 0.0 0.0 0.00 0.00 0.00 39 1015.4
20260510191511 73 355 0.0 0.0 0.00 0.00 0.00 38 1015.4
20260510191012 73 285 0.0 0.0 0.00 0.00 0.00 38 1015.4
20260510190516 73 292 0.0 0.0 0.00 0.00 0.00 37 1015.5
20260510190016 73 331 0.0 0.0 0.00 0.00 0.00 38 1015.5
20260510185511 73 288 0.0 0.0 0.00 0.00 0.00 38 1015.5
20260510185013 73 288 0.0 0.0 0.00 0.00 0.00 39 1015.5
20260510184510 73 317 0.0 0.0 0.00 0.00 0.00 40 1015.5
20260510184010 74 290 0.0 0.0 0.00 0.00 0.00 40 1015.5
20260510183510 73 284 0.0 0.0 0.00 0.00 0.00 39 1015.4
20260510183010 73 295 0.0 0.0 0.00 0.00 0.00 42 1015.4
20260510182509 73 256 0.0 0.0 0.00 0.00 0.00 41 1015.4
20260510182010 73 289 0.0 0.0 0.00 0.00 0.00 40 1015.5
20260510181511 73 311 0.0 0.0 0.00 0.00 0.00 41 1015.5
20260510181009 73 295 0.0 0.0 0.00 0.00 0.00 41 1015.5
20260510180508 73 317 0.0 0.0 0.00 0.00 0.00 40 1015.6
20260510180008 73 339 0.0 0.0 0.00 0.00 0.00 39 1015.6
20260510175507 74 275 0.0 0.0 0.00 0.00 0.00 39 1015.7
20260510175006 74 281 0.0 0.0 0.00 0.00 0.00 42 1015.7
20260510174507 73 344 0.0 4.3 0.00 0.00 0.00 39 1015.6
20260510174007 73 297 0.0 4.3 0.00 0.00 0.00 41 1015.6
20260510173506 73 261 0.0 0.0 0.00 0.00 0.00 40 1015.6
20260510173006 73 292 0.0 0.0 0.00 0.00 0.00 42 1015.6
20260510172505 73 342 0.0 0.0 0.00 0.00 0.00 41 1015.6
20260510172006 73 355 0.0 0.0 0.00 0.00 0.00 40 1015.7
20260510171505 73 344 0.0 0.0 0.00 0.00 0.00 41 1015.8
20260510171005 73 313 0.0 0.0 0.00 0.00 0.00 40 1015.8
20260510170505 72 342 0.0 0.0 0.00 0.00 0.00 40 1015.7
20260510170004 72 319 0.0 0.0 0.00 0.00 0.00 41 1015.7
20260510165504 72 355 0.0 4.3 0.00 0.00 0.00 43 1015.8
20260510165004 72 294 0.0 4.3 0.00 0.00 0.00 42 1016.0
20260510164510 73 322 0.0 0.0 0.00 0.00 0.00 43 1016.0
20260510164002 73 292 0.0 0.0 0.00 0.00 0.00 41 1015.9
20260510163502 73 306 0.0 0.0 0.00 0.00 0.00 43 1015.9
20260510163101 73 294 0.0 0.0 0.00 0.00 0.00 45 1015.8
20260510162601 72 286 0.0 0.0 0.00 0.00 0.00 42 1015.7
20260510162058 72 335 0.0 0.0 0.00 0.00 0.00 43 1015.5
20260510161557 72 297 0.0 0.0 0.00 0.00 0.00 43 1015.3
20260510161057 72 342 0.0 0.0 0.00 0.00 0.00 43 1015.2
20260510160556 72 297 0.0 0.9 0.00 0.00 0.00 43 1015.1
20260510160056 71 311 0.0 2.6 0.00 0.00 0.00 44 1015.1
20260510155555 72 349 0.0 2.6 0.00 0.00 0.00 44 1015.1
20260510155057 71 297 0.0 0.0 0.00 0.00 0.00 45 1015.1
20260510154557 71 293 0.0 0.0 0.00 0.00 0.00 44 1015.2
20260510154052 70 344 0.0 0.0 0.00 0.00 0.00 44 1015.2
20260510153553 70 355 0.0 0.0 0.00 0.00 0.00 44 1015.2
20260510153052 70 296 0.0 0.0 0.00 0.00 0.00 47 1015.2
20260510152551 70 288 0.0 0.0 0.00 0.00 0.00 46 1015.3
20260510152052 70 329 0.0 0.0 0.00 0.00 0.00 47 1015.1
20260510151557 70 333 0.0 0.0 0.00 0.00 0.00 49 1015.1
20260510151049 69 292 0.0 0.0 0.00 0.00 0.00 47 1015.0
20260510150549 69 355 0.0 0.0 0.00 0.00 0.00 50 1015.0
20260510150049 69 293 0.0 0.0 0.00 0.00 0.00 48 1015.1
20260510145547 69 355 0.0 0.0 0.00 0.00 0.00 48 1015.0
20260510145046 69 343 0.0 0.0 0.00 0.00 0.00 49 1015.1
20260510144601 69 294 0.0 0.0 0.00 0.00 0.00 50 1015.1
20260510144045 68 294 0.0 0.0 0.00 0.00 0.00 51 1015.1
20260510143544 68 287 0.0 0.0 0.00 0.00 0.00 50 1015.1
20260510143055 67 295 0.0 0.0 0.00 0.00 0.00 52 1015.1
20260510142543 67 280 0.0 0.0 0.00 0.00 0.00 50 1015.0
20260510142045 67 240 0.0 0.0 0.00 0.00 0.00 50 1015.0
20260510141543 67 269 0.0 0.0 0.00 0.00 0.00 50 1015.1
20260510141043 67 292 0.0 0.0 0.00 0.00 0.00 50 1015.1
20260510140541 67 270 0.0 0.0 0.00 0.00 0.00 51 1015.1
20260510140041 67 277 0.0 0.0 0.00 0.00 0.00 52 1015.0
20260510135539 66 248 0.0 0.0 0.00 0.00 0.00 53 1015.0
20260510135038 65 282 0.0 0.0 0.00 0.00 0.00 53 1015.0
20260510134538 65 245 0.0 0.0 0.00 0.00 0.00 53 1014.9
20260510134037 65 288 0.0 1.7 0.00 0.00 0.00 53 1014.9
20260510133537 65 294 0.0 1.7 0.00 0.00 0.00 53 1014.9
20260510133035 65 220 0.0 0.0 0.00 0.00 0.00 52 1014.7
20260510132535 64 267 0.0 0.0 0.00 0.00 0.00 52 1014.6
20260510132038 65 269 0.0 0.0 0.00 0.00 0.00 53 1014.5
20260510131544 64 250 0.0 0.0 0.00 0.00 0.00 53 1014.4
20260510131039 64 250 0.0 0.0 0.00 0.00 0.00 52 1014.5
20260510130534 63 215 0.0 0.0 0.00 0.00 0.00 54 1014.5
20260510130033 63 223 0.0 0.0 0.00 0.00 0.00 53 1014.4
20260510125534 63 229 0.0 0.0 0.00 0.00 0.00 53 1014.1
20260510125030 63 232 0.0 0.0 0.00 0.00 0.00 55 1014.1
20260510124533 62 191 0.0 0.0 0.00 0.00 0.00 56 1014.1
20260510124030 61 194 0.0 0.0 0.00 0.00 0.00 56 1014.0
20260510123530 61 196 0.0 0.0 0.00 0.00 0.00 57 1013.9
20260510123028 61 205 0.0 0.0 0.00 0.00 0.00 58 1013.9
20260510122527 60 219 0.0 0.0 0.00 0.00 0.00 59 1013.7
20260510122027 59 204 0.0 0.0 0.00 0.00 0.00 59 1013.6
20260510121530 59 206 0.0 0.0 0.00 0.00 0.00 59 1013.5
20260510121030 59 198 0.0 0.0 0.00 0.00 0.00 59 1013.4
20260510120525 59 192 0.0 0.0 0.00 0.00 0.00 58 1013.3
20260510120029 59 188 0.0 0.0 0.00 0.00 0.00 59 1013.2
20260510115524 59 126 0.0 0.0 0.00 0.00 0.00 59 1013.2
20260510115023 59 119 0.0 0.0 0.00 0.00 0.00 59 1013.1
20260510114522 59 118 0.0 0.0 0.00 0.00 0.00 58 1013.0
20260510114024 59 118 0.0 0.0 0.00 0.00 0.00 58 1012.9
20260510113521 59 118 0.0 0.0 0.00 0.00 0.00 57 1012.9
20260510113021 59 118 0.0 0.0 0.00 0.00 0.00 57 1012.9
20260510112522 59 118 0.0 0.0 0.00 0.00 0.00 56 1012.9
20260510112018 59 118 0.0 0.0 0.00 0.00 0.00 55 1012.8
20260510111517 60 118 0.0 0.9 0.00 0.00 0.00 55 1012.8
20260510111015 60 183 0.0 0.9 0.00 0.00 0.00 54 1012.6
20260510110514 61 211 0.0 0.0 0.00 0.00 0.00 53 1012.6
20260510110016 61 211 0.0 0.0 0.00 0.00 0.00 52 1012.6
20260510105514 61 229 0.0 0.0 0.00 0.00 0.00 51 1012.4
20260510105018 61 238 0.0 0.0 0.00 0.00 0.00 51 1012.5
20260510104512 62 238 0.0 0.0 0.00 0.00 0.00 50 1012.5
20260510104012 62 238 0.0 0.0 0.00 0.00 0.00 50 1012.4
20260510103512 62 240 0.0 0.0 0.00 0.00 0.00 50 1012.5
20260510103012 62 240 0.0 0.0 0.00 0.00 0.00 50 1012.5
20260510102512 62 240 0.0 0.0 0.00 0.00 0.00 49 1012.5
20260510102015 62 240 0.0 0.0 0.00 0.00 0.00 49 1012.5
20260510101511 62 240 0.0 0.0 0.00 0.00 0.00 49 1012.5
20260510101014 62 236 0.0 0.0 0.00 0.00 0.00 49 1012.5
20260510100512 62 236 0.0 0.0 0.00 0.00 0.00 49 1012.4
20260510100010 62 231 0.0 0.0 0.00 0.00 0.00 49 1012.5
20260510095513 62 240 0.0 0.0 0.00 0.00 0.00 48 1012.4
20260510095013 62 228 0.0 0.0 0.00 0.00 0.00 48 1012.4
20260510094509 63 250 0.0 0.0 0.00 0.00 0.00 46 1012.4
20260510094009 63 250 0.0 0.0 0.00 0.00 0.00 46 1012.3
20260510093508 63 250 0.0 0.0 0.00 0.00 0.00 46 1012.4
20260510093008 63 250 0.0 0.0 0.00 0.00 0.00 46 1012.3
20260510092508 63 250 0.0 0.0 0.00 0.00 0.00 46 1012.2
20260510092006 63 243 0.0 0.0 0.00 0.00 0.00 47 1012.1
20260510091508 63 266 0.0 0.0 0.00 0.00 0.00 46 1012.1
20260510091008 64 230 0.0 0.0 0.00 0.00 0.00 46 1011.7
20260510090505 64 230 0.0 0.0 0.00 0.00 0.00 46 1011.6
20260510090006 64 221 0.0 0.0 0.00 0.00 0.00 45 1011.6
20260510085504 65 232 0.0 0.0 0.00 0.00 0.00 44 1011.5
20260510085003 65 259 0.0 0.0 0.00 0.00 0.00 43 1011.5
20260510084506 65 241 0.0 0.0 0.00 0.00 0.00 43 1011.4
20260510084003 65 255 0.0 0.0 0.00 0.00 0.00 44 1011.4
20260510083503 65 232 0.0 0.0 0.00 0.00 0.00 44 1011.4
20260510083002 65 246 0.0 0.0 0.00 0.00 0.00 45 1011.5
20260510082503 64 232 0.0 0.0 0.00 0.00 0.00 46 1011.4
20260510082002 64 242 0.0 0.0 0.00 0.00 0.00 46 1011.4
20260510081503 64 226 0.0 0.0 0.00 0.00 0.00 46 1011.4
20260510081002 64 228 0.0 0.0 0.00 0.00 0.00 46 1011.4
20260510080501 64 252 0.0 0.0 0.00 0.00 0.00 46 1011.5
20260510080001 64 228 0.0 0.0 0.00 0.00 0.00 46 1011.4
20260510075501 64 244 0.0 0.0 0.00 0.00 0.00 46 1011.3
20260510075100 64 222 0.0 0.0 0.00 0.00 0.00 46 1011.3
20260510074600 64 236 0.0 0.0 0.00 0.00 0.00 47 1011.4
20260510074103 63 238 0.0 0.0 0.00 0.00 0.00 48 1011.2
20260510073558 63 238 0.0 0.0 0.00 0.00 0.00 49 1011.1
20260510073116 62 238 0.0 0.0 0.00 0.00 0.00 49 1011.1
20260510072558 62 210 0.0 0.0 0.00 0.00 0.00 49 1011.1
20260510072059 62 209 0.0 0.0 0.00 0.00 0.00 49 1011.0
20260510071559 63 224 0.0 0.0 0.00 0.00 0.00 49 1011.0
20260510071058 62 216 0.0 0.0 0.00 0.00 0.00 49 1011.1
20260510070558 62 221 0.0 0.0 0.00 0.00 0.00 49 1011.1
20260510070106 62 213 0.0 0.0 0.00 0.00 0.00 49 1011.0
20260510065558 62 207 0.0 0.0 0.00 0.00 0.00 49 1011.0
20260510065057 63 209 0.0 0.0 0.00 0.00 0.00 49 1011.0
20260510064635 63 208 0.0 0.0 0.00 0.00 0.00 49 1011.1
20260510064056 63 227 0.0 0.0 0.00 0.00 0.00 49 1011.1
20260510063558 63 218 0.0 0.0 0.00 0.00 0.00 48 1011.0
20260510063057 63 224 0.0 0.0 0.00 0.00 0.00 48 1010.9
20260510062557 64 221 0.0 0.0 0.00 0.00 0.00 48 1011.0
20260510062056 64 217 0.0 0.0 0.00 0.00 0.00 47 1010.9
20260510061555 64 229 0.0 0.0 0.00 0.00 0.00 47 1010.9
20260510061055 65 229 0.0 0.0 0.00 0.00 0.00 46 1011.0
20260510060600 65 235 0.0 0.0 0.00 0.00 0.00 46 1011.1
20260510060056 65 236 0.0 0.0 0.00 0.00 0.00 46 1011.0
20260510055554 65 240 0.0 0.0 0.00 0.00 0.00 46 1011.1
20260510055053 65 247 0.0 0.0 0.00 0.00 0.00 46 1011.0
20260510054554 65 249 0.0 0.0 0.00 0.00 0.00 46 1011.1
20260510054052 65 255 0.0 0.0 0.00 0.00 0.00 47 1011.2
20260510053550 64 238 0.0 0.0 0.00 0.00 0.00 48 1011.2
20260510053049 64 238 0.0 0.0 0.00 0.00 0.00 48 1011.1
20260510052550 63 232 0.0 0.0 0.00 0.00 0.00 49 1011.2
20260510052050 63 236 0.0 0.0 0.00 0.00 0.00 49 1011.2
20260510051649 64 237 0.0 0.0 0.00 0.00 0.00 49 1011.2
20260510051048 64 232 0.0 0.0 0.00 0.00 0.00 48 1011.2
20260510050548 64 235 0.0 0.0 0.00 0.00 0.00 49 1011.2
20260510050052 63 236 0.0 0.0 0.00 0.00 0.00 49 1011.2
20260510045546 63 232 0.0 0.0 0.00 0.00 0.00 50 1011.2
20260510045045 63 232 0.0 0.0 0.00 0.00 0.00 50 1011.2
20260510044545 63 240 0.0 0.0 0.00 0.00 0.00 50 1011.2
20260510044042 62 225 0.0 0.0 0.00 0.00 0.00 52 1011.1
20260510043543 61 215 0.0 0.0 0.00 0.00 0.00 53 1011.1
20260510043044 61 207 0.0 0.0 0.00 0.00 0.00 53 1011.1
20260510042544 61 210 0.0 0.0 0.00 0.00 0.00 53 1011.2
20260510042040 61 197 0.0 0.0 0.00 0.00 0.00 53 1011.1
20260510041541 62 199 0.0 0.0 0.00 0.00 0.00 53 1011.1
20260510041040 62 202 0.0 0.0 0.00 0.00 0.00 52 1011.1
20260510040539 62 202 0.0 0.0 0.00 0.00 0.00 52 1011.1
20260510040045 62 223 0.0 0.0 0.00 0.00 0.00 52 1011.1
20260510035537 61 218 0.0 0.0 0.00 0.00 0.00 54 1011.1
20260510035041 61 198 0.0 0.0 0.00 0.00 0.00 55 1011.1
20260510034547 61 182 0.0 0.0 0.00 0.00 0.00 55 1011.1
20260510034037 61 182 0.0 0.0 0.00 0.00 0.00 55 1011.2
20260510033543 61 182 0.0 0.0 0.00 0.00 0.00 55 1011.2
20260510033040 61 182 0.0 0.0 0.00 0.00 0.00 55 1011.2
20260510032536 61 184 0.0 0.0 0.00 0.00 0.00 55 1011.2
20260510032036 61 184 0.0 0.0 0.00 0.00 0.00 54 1011.3
20260510031536 61 184 0.0 0.0 0.00 0.00 0.00 54 1011.3
20260510031036 61 184 0.0 0.0 0.00 0.00 0.00 54 1011.3
20260510030536 62 184 0.0 0.0 0.00 0.00 0.00 54 1011.2
20260510030035 62 186 0.0 0.0 0.00 0.00 0.00 53 1011.2
20260510025536 62 186 0.0 0.0 0.00 0.00 0.00 53 1011.3
20260510025035 63 187 0.0 0.0 0.00 0.00 0.00 52 1011.3
20260510024534 63 188 0.0 0.0 0.00 0.00 0.00 51 1011.2
20260510024033 64 188 0.0 0.0 0.00 0.00 0.00 50 1011.1
20260510023532 64 194 0.0 0.0 0.00 0.00 0.00 49 1011.1
20260510023032 64 194 0.0 0.0 0.00 0.00 0.00 48 1011.0
20260510022532 65 194 0.0 0.0 0.00 0.00 0.00 48 1011.0
20260510022031 65 194 0.0 0.0 0.00 0.00 0.00 48 1010.9
20260510021532 65 194 0.0 0.0 0.00 0.00 0.00 48 1010.9
20260510021028 65 194 0.0 0.0 0.00 0.00 0.00 47 1010.7
20260510020528 65 194 0.0 0.0 0.00 0.00 0.00 47 1010.7
20260510020030 66 194 0.0 0.0 0.00 0.00 0.00 46 1010.6
20260510015528 67 194 0.0 0.0 0.00 0.00 0.00 45 1010.5
20260510015025 68 232 0.0 0.0 0.00 0.00 0.00 44 1010.5
20260510014524 68 232 0.0 0.0 0.00 0.00 0.00 43 1010.4
20260510014024 68 232 0.0 0.0 0.00 0.00 0.00 42 1010.3
20260510013526 68 232 0.0 0.0 0.00 0.00 0.00 42 1010.2
20260510013022 69 232 0.0 0.0 0.00 0.00 0.00 41 1010.1
20260510012521 69 232 0.0 0.0 0.00 0.00 0.00 40 1010.0
20260510012023 69 232 0.0 0.0 0.00 0.00 0.00 40 1009.9
20260510011521 69 232 0.0 0.0 0.00 0.00 0.00 40 1009.8
20260510011020 69 232 0.0 0.0 0.00 0.00 0.00 40 1009.8
20260510010520 69 232 0.0 0.0 0.00 0.00 0.00 40 1009.7
20260510010021 70 232 0.0 0.0 0.00 0.00 0.00 39 1009.7
20260510005521 70 232 0.0 0.0 0.00 0.00 0.00 39 1009.6
20260510005022 70 232 0.0 0.0 0.00 0.00 0.00 38 1009.4
20260510004520 71 232 0.0 0.0 0.00 0.00 0.00 38 1009.4
20260510004019 71 232 0.0 0.0 0.00 0.00 0.00 37 1009.3
20260510003520 71 232 0.0 0.0 0.00 0.00 0.00 37 1009.2
20260510003021 71 232 0.0 0.0 0.00 0.00 0.00 37 1009.2
20260510002521 72 227 0.0 0.0 0.00 0.00 0.00 36 1009.1
20260510002019 72 226 0.0 0.0 0.00 0.00 0.00 36 1009.0
20260510001519 72 228 0.0 0.0 0.00 0.00 0.00 36 1009.0
20260510001019 73 224 0.0 0.0 0.00 0.00 0.00 36 1008.9
20260510000519 73 232 0.0 0.0 0.00 0.00 0.00 35 1008.9
20260510000020 73 242 0.0 0.0 0.00 0.00 0.00 35 1008.9
20260509235519 73 229 0.0 0.0 0.00 0.00 0.00 35 1008.9
20260509235017 74 223 0.0 0.0 0.00 0.00 0.00 34 1008.8
20260509234518 74 209 0.0 0.0 0.00 0.00 0.00 33 1008.7
20260509234018 74 227 0.0 0.0 0.00 0.00 0.00 32 1008.8
20260509233517 74 215 0.0 0.0 0.00 0.00 0.00 30 1008.7
20260509233020 74 246 0.0 0.0 0.00 0.00 0.00 30 1008.7
20260509232516 74 238 0.0 0.0 0.00 0.00 0.00 31 1008.8
20260509232016 75 277 0.0 0.0 0.00 0.00 0.00 29 1008.8
20260509231517 75 267 0.0 0.0 0.00 0.00 0.00 29 1008.8